Theta_e
311 311 310 311 310 315 320 319 316 317 317 313 315 317 317 319 320 319 320 321 327 338 340 338 338 337 338 340 340 342 345 347 344 339 342 351 351 349 351 350 352 350 348 348 341 336 337 337 337 334 331 326 322 320 322 327 332 334 334 333 332 331 328 326 325 321 313 309 310 311 311 312 313 313 314 318 322 326 329 333 336 338 338 337 338 338 338 338 338 338 337 337 337 336 336 335 335
310 310 310 311 312 317 321 319 315 316 315 312 315 317 318 320 320 319 320 322 327 333 335 336 339 342 342 343 342 343 346 348 349 348 350 350 350 350 350 350 351 349 348 348 341 336 338 337 336 335 330 324 320 318 318 322 327 331 331 330 329 327 325 324 321 314 310 310 310 311 312 312 313 313 315 319 322 326 331 335 337 338 338 337 338 338 338 337 337 337 337 337 336 336 336 335 335
309 310 313 314 315 318 320 318 314 313 313 312 315 319 319 318 319 320 321 322 324 327 329 332 337 343 343 340 342 344 346 348 350 349 349 349 350 349 350 350 350 349 348 347 342 337 338 338 336 334 329 322 318 317 317 319 322 325 325 324 323 323 322 319 315 310 310 310 310 311 312 312 313 313 315 319 322 326 332 335 337 337 338 337 338 338 338 337 337 338 337 337 336 336 336 336 335
309 310 315 320 319 318 319 317 315 314 312 312 314 318 319 317 320 320 322 322 323 326 326 333 339 344 345 342 344 346 348 350 350 349 349 348 349 350 350 350 349 349 347 346 343 339 338 337 336 333 327 320 317 316 316 318 319 320 320 320 321 320 318 314 310 310 310 310 310 311 312 313 313 313 315 319 323 327 332 336 337 337 338 338 338 338 338 337 336 337 337 337 337 337 337 336 335
310 311 314 320 321 318 319 317 316 314 313 314 314 317 318 318 321 320 323 321 324 326 324 333 340 343 346 348 349 348 348 350 349 349 349 348 349 350 350 350 349 349 347 346 344 342 339 337 336 331 324 319 316 316 317 317 318 319 319 320 319 317 314 311 310 310 310 310 311 311 312 313 313 313 315 318 323 328 331 335 336 337 337 338 337 337 337 336 335 334 336 336 337 337 336 335 334
312 316 315 318 320 319 319 315 315 314 316 318 316 319 319 319 321 321 323 321 325 325 321 331 338 341 345 348 351 350 350 351 349 348 349 348 349 349 349 349 349 349 347 345 344 344 340 337 337 331 324 319 316 317 317 318 319 319 319 319 317 315 313 311 310 310 310 311 311 311 313 313 313 314 315 316 320 324 327 331 334 335 336 337 336 336 336 335 334 333 333 334 334 334 334 333 331
316 319 317 317 318 318 317 315 315 315 318 318 316 319 319 320 322 322 323 321 325 326 324 330 335 338 342 347 349 350 349 349 349 349 348 348 349 348 349 349 349 348 347 345 344 345 340 337 336 331 325 319 317 316 318 319 319 320 319 317 315 314 313 311 310 311 311 311 311 311 312 314 314 314 314 314 316 319 321 327 331 332 334 335 334 334 334 333 332 331 331 330 330 329 328 326 323
316 320 319 317 317 317 316 317 317 318 318 318 318 319 319 321 322 322 322 322 322 326 331 334 336 337 342 347 348 349 348 349 349 349 348 349 349 348 349 349 349 348 347 345 344 344 339 337 336 331 326 320 317 317 317 318 319 319 317 316 315 314 313 312 311 311 311 311 311 312 312 314 314 314 314 314 315 318 319 323 327 329 331 331 331 332 332 330 330 329 328 326 323 322 320 317 315
315 318 318 316 317 317 315 316 317 318 318 318 318 319 320 321 321 322 320 323 320 324 337 339 338 338 341 346 349 350 349 349 349 349 349 350 349 349 349 349 348 347 347 345 345 343 338 337 336 331 327 321 318 317 316 316 316 317 316 316 315 315 314 313 312 311 311 311 311 312 312 313 314 314 314 314 314 317 319 321 325 328 329 328 327 328 328 328 328 327 324 321 319 318 315 314 313
316 316 318 316 316 314 313 315 316 317 317 317 318 319 320 320 320 321 320 323 321 326 341 342 339 338 340 343 349 351 350 349 349 349 350 350 349 349 349 349 348 347 346 345 345 342 338 338 336 333 330 322 320 318 317 316 315 314 314 314 314 314 315 314 313 312 311 311 311 311 312 313 313 313 314 314 313 316 318 321 325 327 327 326 325 326 327 327 325 323 321 319 318 316 314 312 310
317 316 317 316 314 312 312 314 315 317 317 317 319 320 319 319 319 320 321 323 327 334 341 342 337 337 342 344 349 350 349 349 349 349 349 350 349 349 349 348 347 347 346 345 344 342 339 339 337 335 332 324 321 319 319 321 319 317 315 314 314 314 314 314 314 313 312 311 311 312 313 313 313 313 313 313 313 315 318 320 324 326 325 324 324 325 326 325 322 321 321 320 318 316 313 310 309
318 316 315 314 313 314 314 314 315 316 317 318 319 320 319 318 319 320 321 322 331 339 339 341 339 337 340 343 351 349 348 349 349 349 350 349 349 349 348 347 347 346 346 344 344 342 340 340 338 337 334 328 323 320 321 326 325 324 322 320 319 318 316 314 314 314 314 312 312 313 313 313 313 313 313 313 313 315 318 320 322 324 325 323 323 324 325 323 322 322 322 320 318 317 313 310 308
317 318 315 314 315 316 315 314 315 316 318 319 318 319 320 319 319 320 321 324 335 338 337 341 340 339 341 345 352 350 348 349 349 350 350 349 349 348 348 348 346 346 346 345 344 343 341 341 339 338 336 331 326 320 323 327 329 329 328 327 326 326 323 320 319 317 316 314 313 313 313 311 314 318 315 313 314 315 317 319 321 322 323 323 322 323 324 323 324 323 322 321 319 318 314 310 308
316 318 315 315 316 316 315 314 315 315 317 319 318 318 322 324 322 323 325 326 336 340 340 342 341 341 343 346 350 350 350 349 349 350 349 350 349 348 348 348 347 346 346 344 344 342 341 342 341 339 338 336 331 324 326 328 330 331 330 330 330 330 329 327 325 323 321 317 315 314 313 312 318 325 319 314 314 315 318 319 321 321 322 324 322 322 323 323 325 324 322 321 321 319 316 312 309
317 317 316 316 316 314 315 315 315 317 317 318 318 318 325 330 329 333 335 332 340 345 344 342 344 343 341 342 345 349 350 348 348 349 350 350 349 349 348 348 347 347 346 344 344 343 342 343 343 341 339 340 336 330 331 330 328 331 332 331 332 331 331 330 328 326 325 322 319 316 317 317 322 326 320 317 315 314 317 319 321 321 322 324 323 321 322 323 325 326 323 322 322 321 319 315 312
317 317 316 316 315 314 314 316 317 317 317 318 319 319 325 333 335 340 342 340 344 345 344 343 345 344 344 345 345 350 349 347 349 349 349 350 349 349 349 348 347 346 346 345 345 344 343 344 343 342 340 341 338 334 334 333 329 328 331 331 332 332 332 332 330 328 327 325 323 324 328 329 327 326 321 318 317 315 315 318 320 321 322 323 325 323 322 322 325 326 325 324 323 321 320 319 317
317 317 316 315 314 314 315 316 318 317 317 319 319 319 322 331 336 340 342 343 343 344 347 345 344 345 348 348 347 351 348 346 349 348 349 349 349 349 348 349 347 346 345 344 345 344 344 344 343 342 341 340 340 339 337 337 333 330 333 332 332 333 333 332 332 332 329 327 329 332 334 335 333 330 326 321 319 318 314 314 318 321 322 322 325 326 324 322 324 327 326 326 325 321 320 320 320
316 316 316 315 315 315 316 318 319 317 318 318 319 318 319 328 336 340 342 343 342 343 346 344 345 345 345 346 348 350 346 346 349 349 349 349 348 348 347 348 347 347 345 344 344 344 343 343 343 342 342 341 341 342 339 339 337 335 335 334 333 334 334 334 334 336 333 330 333 335 336 336 335 334 331 326 323 321 316 313 315 320 323 323 325 327 327 324 323 327 326 327 327 322 320 319 321
316 317 316 315 316 316 317 318 319 318 318 318 319 318 317 327 337 340 338 337 340 340 340 343 346 346 344 345 348 349 346 347 348 348 348 347 347 346 346 347 347 346 345 344 343 343 343 342 342 342 342 341 341 343 342 341 339 338 338 337 336 335 336 336 336 337 336 335 335 335 335 335 336 335 334 331 325 323 319 314 312 317 321 323 325 327 328 326 324 327 328 327 327 325 323 322 321
317 318 315 315 317 317 317 317 319 318 318 318 318 317 317 324 329 332 334 334 337 334 335 339 341 347 347 347 349 349 347 348 348 347 347 346 346 346 346 345 346 346 345 345 344 343 342 342 342 341 341 341 341 342 343 342 341 340 339 339 338 337 336 337 337 337 336 336 336 335 335 335 337 336 336 334 327 322 321 317 313 312 318 323 325 327 327 327 327 328 329 328 328 330 330 329 326
317 317 314 317 318 316 317 317 318 318 318 318 317 318 317 319 320 324 332 332 332 331 333 335 333 343 348 348 349 349 347 347 347 347 346 346 345 344 345 345 345 346 345 345 345 343 341 341 341 341 341 341 342 343 343 343 341 340 340 339 339 338 337 337 337 337 336 336 335 335 334 335 338 337 335 334 329 325 324 322 317 311 314 320 325 329 328 327 328 329 330 328 330 334 333 331 329
318 317 315 319 317 315 317 317 318 317 317 317 317 318 316 318 319 322 331 329 327 329 332 333 334 342 345 345 349 349 347 347 347 346 345 345 344 343 343 344 344 345 345 345 345 343 341 340 340 341 341 341 342 343 343 342 341 341 341 340 339 338 338 337 337 336 335 335 334 334 334 334 336 336 334 334 334 331 327 326 324 317 315 317 324 330 330 327 328 329 329 329 331 333 332 328 327
316 317 317 318 317 317 318 318 317 317 317 317 317 317 316 318 319 325 331 326 323 327 330 335 341 345 342 342 347 348 347 347 346 346 345 344 343 343 343 343 344 344 345 345 344 343 341 340 339 340 339 339 340 342 343 342 341 342 341 339 338 338 337 337 337 336 335 335 334 333 333 333 334 335 333 333 335 334 330 328 328 325 320 319 324 330 331 329 330 329 329 331 332 332 331 327 325
314 316 317 317 317 317 317 318 317 317 317 317 317 316 316 317 317 324 327 322 323 328 332 339 343 343 341 343 348 348 346 346 346 345 345 344 343 342 342 343 343 343 344 344 344 343 341 340 339 340 339 338 338 339 340 340 340 340 339 338 338 337 336 336 336 335 334 334 334 333 333 333 334 335 334 332 334 335 333 329 328 328 326 323 325 330 332 331 330 330 331 332 333 333 331 329 328
314 314 317 316 317 317 316 317 317 317 317 316 316 316 317 317 316 320 320 320 327 330 336 341 341 341 343 347 349 348 346 346 346 345 344 345 344 343 342 342 342 342 342 342 343 342 341 341 340 339 338 337 337 337 337 338 338 337 337 337 337 336 335 336 336 335 334 333 333 333 333 333 335 336 334 332 333 335 335 331 329 329 329 327 326 329 332 330 328 329 331 332 333 333 332 331 329
315 315 316 317 316 317 316 317 317 317 317 316 316 316 317 316 316 318 317 321 328 331 338 342 342 342 346 348 348 347 346 345 346 345 345 345 344 343 342 341 341 342 342 341 342 341 340 341 341 338 337 336 336 336 336 337 336 335 336 336 336 335 335 335 334 333 332 333 333 333 333 333 335 337 334 333 334 334 334 332 330 328 329 329 326 328 331 330 328 328 331 332 333 333 332 331 329
317 316 317 317 317 317 317 317 317 317 317 317 316 317 317 315 316 317 318 323 329 334 338 341 341 342 346 349 348 347 345 345 345 345 344 344 344 343 342 341 341 341 342 341 341 341 340 341 340 338 337 336 336 338 337 336 335 335 336 335 335 334 334 334 331 330 330 332 333 333 333 333 335 336 334 333 334 334 333 332 331 328 328 329 327 327 329 329 327 327 330 332 332 333 333 331 330
317 316 316 317 316 317 317 317 318 317 317 316 316 317 316 316 315 320 329 330 334 339 337 340 340 338 345 348 347 347 346 345 344 344 344 344 344 344 343 342 342 342 342 341 341 341 341 340 340 339 339 338 337 339 338 336 335 335 336 336 335 335 334 332 330 329 328 329 332 333 333 332 334 335 334 333 333 333 333 332 332 330 329 329 328 327 326 325 324 325 329 331 332 332 332 331 330
316 316 316 316 316 316 316 317 317 317 316 316 316 316 316 317 315 319 331 336 339 340 336 338 339 337 345 348 347 348 346 344 344 343 344 343 343 343 343 343 342 342 341 341 341 340 340 340 340 340 339 339 338 340 339 338 337 337 336 336 335 335 334 332 331 330 328 328 329 331 332 332 334 336 334 333 333 333 333 333 332 332 331 330 330 329 324 322 322 324 326 328 330 331 331 330 330
315 315 315 315 315 314 316 317 317 316 316 316 315 315 314 317 317 316 325 337 341 338 333 334 337 339 345 347 346 346 346 344 343 343 343 343 343 343 343 342 342 342 342 341 341 340 340 339 339 339 338 337 337 337 337 337 339 338 338 337 336 335 334 334 333 330 328 327 328 331 331 331 333 336 335 333 333 334 333 333 332 332 332 331 331 331 327 324 323 324 326 327 329 330 331 330 330
314 314 314 315 313 313 316 317 317 316 315 316 315 314 315 319 321 318 322 335 341 336 334 336 339 342 344 346 343 341 343 344 343 343 343 342 342 342 342 343 342 342 342 341 340 339 339 339 338 338 336 335 335 334 333 334 336 336 338 338 336 335 334 336 335 332 330 328 328 330 330 330 333 335 336 334 333 334 333 333 332 331 332 332 332 331 330 328 325 325 326 328 329 330 331 330 330
314 313 312 314 313 313 316 316 317 316 315 316 316 314 317 322 324 323 323 332 339 337 335 337 340 343 345 346 342 339 341 343 342 342 341 341 341 341 341 342 341 341 341 341 340 338 338 339 338 337 336 335 333 333 332 333 334 333 335 336 335 334 335 336 336 334 332 330 327 328 329 330 332 334 336 334 333 333 332 332 333 331 331 332 332 331 330 330 328 326 326 328 330 331 331 330 330
314 313 312 313 313 313 314 316 316 317 316 316 316 315 319 323 327 327 326 330 335 335 334 336 338 341 344 345 343 342 342 342 342 341 340 340 340 341 341 341 341 341 341 341 340 338 338 338 337 335 334 335 334 333 332 333 334 334 334 335 334 334 335 336 337 335 333 332 329 327 328 329 331 334 335 335 334 333 332 332 332 331 332 332 332 331 330 330 331 329 327 326 328 330 330 329 329
313 313 314 313 313 314 313 314 316 317 316 316 316 318 322 324 327 330 329 329 330 333 334 336 338 339 342 343 342 343 343 342 342 341 341 340 340 340 341 342 342 342 341 340 339 338 337 336 335 334 332 332 333 334 333 332 332 333 334 335 335 334 335 336 336 335 334 333 332 329 328 328 329 331 334 336 335 333 332 333 332 331 332 332 329 329 329 330 331 331 329 327 327 329 329 329 329
313 312 314 314 313 314 313 314 316 316 316 316 316 320 324 326 327 330 331 331 331 333 334 335 337 339 341 340 340 342 342 342 341 341 341 341 341 341 341 342 342 342 341 340 339 338 337 335 334 333 331 329 329 331 333 333 331 330 331 333 334 334 334 335 335 334 334 334 333 332 330 328 329 330 332 335 334 333 332 332 332 332 332 330 325 324 327 329 331 331 329 328 328 328 329 330 330
314 314 314 313 312 313 315 315 316 316 316 316 317 321 326 327 328 330 332 332 333 333 334 334 336 338 339 339 339 341 341 341 341 341 341 341 342 341 341 341 341 342 341 339 338 338 337 335 333 332 329 327 327 330 332 333 332 331 330 332 333 332 333 334 334 334 334 334 333 333 331 330 330 330 331 333 333 332 332 331 331 332 332 330 326 324 324 325 328 329 329 329 329 328 328 329 330
315 314 313 313 312 313 315 315 315 317 318 321 322 324 327 328 328 330 332 332 333 334 334 335 335 336 336 337 338 339 340 341 341 341 341 341 341 341 341 340 341 341 339 338 338 337 337 334 331 331 327 326 327 329 331 331 332 332 332 333 332 332 333 334 334 335 334 335 334 334 333 332 331 330 330 331 331 331 332 331 331 331 331 330 328 327 325 324 326 328 329 329 329 329 329 329 328
315 314 313 313 313 313 315 315 315 316 320 323 324 325 328 329 328 329 332 331 332 333 333 334 334 334 335 336 339 339 339 340 341 341 341 341 341 340 340 339 340 340 339 338 338 337 336 332 331 332 328 326 329 331 332 331 331 331 332 333 334 335 335 335 336 335 335 336 335 334 333 332 331 330 329 329 331 332 332 331 331 331 330 330 329 328 327 326 326 328 329 329 329 329 329 328 327
315 314 313 312 313 314 314 315 315 315 320 322 323 325 328 328 327 329 331 331 331 332 332 333 333 333 334 336 337 337 337 337 338 338 339 340 339 339 339 339 339 339 339 339 338 337 336 334 335 335 332 331 333 334 334 334 333 331 332 334 337 337 337 336 336 336 336 336 336 335 334 332 332 330 329 328 331 333 333 332 331 330 330 329 330 329 327 327 327 327 328 328 328 328 328 328 327
314 314 313 312 313 314 313 315 316 317 320 323 323 325 328 328 327 327 329 330 330 330 331 332 332 332 332 333 333 333 333 333 334 334 335 337 337 337 338 338 338 338 338 337 335 334 335 335 335 335 334 334 334 334 334 334 334 333 334 336 337 338 337 336 336 336 336 336 336 336 335 334 333 332 330 328 330 332 333 332 331 330 329 329 331 331 329 327 326 327 327 328 328 328 328 328 328
315 315 313 313 314 313 314 316 317 319 322 324 322 322 325 329 328 327 327 329 330 329 330 330 330 329 329 329 329 329 329 329 329 330 331 333 334 334 334 335 336 335 335 334 331 331 333 334 334 334 333 332 333 333 333 334 334 334 334 335 336 336 336 336 336 335 335 335 335 335 334 334 333 332 331 330 330 331 332 332 332 331 330 329 331 332 330 328 328 328 327 327 327 328 329 328 328
314 315 314 314 314 314 317 317 317 318 319 323 320 317 321 327 328 327 327 328 328 328 328 329 328 328 327 326 326 325 325 326 326 328 330 332 332 331 331 331 331 331 331 331 331 330 332 333 333 333 332 332 333 333 334 334 334 334 334 334 335 335 335 335 335 334 334 334 334 334 334 333 332 332 332 331 331 331 331 332 332 332 330 329 330 331 330 329 329 328 327 327 327 328 331 330 329
313 315 315 315 315 314 316 316 316 316 317 321 321 316 320 327 327 326 327 327 328 327 327 326 326 325 324 324 324 323 323 323 325 327 330 332 332 332 331 329 329 330 330 330 330 330 331 332 331 331 331 332 333 332 332 333 333 334 333 333 333 334 334 335 334 334 334 334 333 333 333 331 331 332 332 332 331 331 331 331 332 333 331 330 329 330 330 329 329 329 329 329 329 329 329 330 331
313 315 315 315 314 314 315 315 315 316 317 320 321 318 319 324 327 327 327 327 328 327 325 325 324 323 322 322 321 321 320 321 323 326 329 330 331 331 331 331 330 330 330 330 330 330 330 331 331 331 331 331 332 331 330 331 332 332 332 331 331 332 332 333 333 333 333 333 332 332 331 330 330 331 332 332 331 331 331 332 333 333 332 330 329 329 331 330 330 329 329 329 330 330 328 327 331
314 315 315 315 314 314 314 314 313 316 317 316 318 317 316 322 327 327 327 327 328 327 324 323 323 321 320 320 320 319 319 320 322 324 326 327 328 329 330 331 330 330 330 330 330 330 330 330 330 331 331 331 332 331 330 330 330 331 332 332 332 333 332 332 332 332 332 332 332 331 330 330 331 331 332 332 332 332 332 333 333 333 333 331 329 329 331 331 330 329 329 329 330 330 328 327 329
315 315 315 315 315 314 315 314 314 315 315 314 316 316 314 322 328 326 326 328 328 327 323 322 322 321 319 319 318 318 318 319 320 321 323 325 326 326 327 328 328 328 328 328 328 329 329 330 330 330 331 331 331 331 331 331 331 331 332 333 333 333 333 332 332 332 332 332 332 331 330 330 331 331 331 332 332 332 332 333 333 333 333 331 329 330 330 330 329 328 329 330 330 330 330 329 329
314 314 314 314 314 315 314 314 314 314 314 313 315 316 315 321 326 326 326 328 328 326 323 322 321 320 318 318 317 317 317 318 318 319 321 322 323 323 324 325 326 326 326 327 327 327 328 329 329 329 330 330 330 331 331 331 331 331 331 332 333 333 334 333 332 332 332 332 331 331 330 331 331 330 331 331 332 331 331 331 332 332 333 330 328 330 330 330 328 326 327 329 330 330 329 329 329
314 314 314 313 313 314 313 314 314 313 314 314 315 317 315 319 325 327 328 327 326 325 323 321 320 319 318 318 317 317 317 317 317 318 319 321 322 322 322 323 324 325 325 325 325 325 326 327 327 328 328 329 329 329 329 330 330 329 330 331 332 332 332 332 331 331 331 331 331 331 330 331 331 331 330 330 330 330 330 330 330 331 331 329 328 330 330 330 330 328 327 327 329 330 329 329 330
314 313 313 312 312 313 313 313 312 313 314 315 316 315 315 321 327 328 328 325 324 323 322 320 319 318 317 317 317 317 317 317 317 317 318 320 321 321 322 323 323 323 323 323 323 324 324 325 325 325 327 327 327 327 328 328 328 328 329 330 330 330 330 330 330 330 331 331 331 331 330 331 332 331 329 328 327 328 328 329 330 329 329 329 329 330 330 329 330 329 327 327 329 330 329 328 330
313 313 313 312 312 314 314 313 312 313 315 317 318 316 319 326 329 328 326 324 323 322 320 319 318 317 317 317 317 316 316 316 316 317 318 319 320 320 321 322 322 323 322 322 323 324 324 325 324 324 326 326 326 326 326 327 327 328 329 329 329 329 330 330 330 330 330 330 330 331 331 331 331 329 327 326 326 326 326 327 329 329 328 329 330 331 330 328 329 328 327 328 329 330 329 328 330
313 314 313 312 312 313 313 313 311 313 316 317 318 318 322 328 328 326 325 324 323 321 319 318 317 316 316 316 316 316 315 315 315 315 317 318 319 319 320 320 320 321 321 322 323 323 324 325 324 324 325 325 326 326 325 326 326 326 327 328 328 329 330 330 329 329 329 329 330 331 330 331 331 329 327 325 325 326 326 327 328 328 328 328 329 331 330 328 328 327 328 328 329 330 329 329 331
313 314 312 312 313 313 313 314 315 314 315 318 321 323 326 328 326 325 325 324 322 321 319 317 316 316 316 315 315 315 314 314 314 314 315 316 317 318 318 318 319 319 320 321 322 322 323 324 323 324 324 325 326 326 326 326 326 325 326 327 328 329 330 330 329 329 329 329 330 330 330 331 331 330 329 327 325 325 326 327 328 328 328 328 329 329 329 328 328 328 329 329 329 329 328 328 330
313 312 312 313 314 315 313 315 318 315 315 320 324 327 328 328 327 325 323 322 321 320 320 318 316 315 315 314 314 314 314 314 313 313 313 314 315 315 315 315 316 317 318 319 319 319 320 321 322 323 323 324 325 326 326 326 326 326 326 327 328 329 329 329 329 329 329 329 329 330 330 330 330 329 328 328 327 326 327 327 329 329 329 329 329 328 328 328 327 327 328 330 330 330 328 328 330
313 311 313 314 314 316 314 313 315 314 315 321 324 327 328 328 329 326 323 322 320 319 320 318 317 315 314 313 313 313 313 313 313 313 312 312 312 313 313 313 313 314 315 315 315 316 317 318 319 319 321 322 323 324 325 326 326 326 326 327 328 328 328 329 329 329 329 329 330 330 329 328 328 327 327 328 327 327 327 327 328 330 330 330 329 328 328 328 327 326 327 329 330 330 329 329 329
314 313 314 313 312 314 313 314 315 313 316 322 322 325 327 326 328 326 324 322 320 319 319 318 316 315 313 312 312 312 312 312 312 311 311 311 311 312 312 312 312 312 312 312 313 314 314 316 316 316 316 317 319 320 321 323 324 325 325 325 327 327 328 328 329 329 329 328 329 329 329 329 328 326 326 327 328 327 327 327 328 330 330 330 330 329 327 327 328 328 328 329 329 329 329 329 329
314 313 313 314 313 313 313 314 314 312 315 321 323 323 323 324 327 327 325 323 321 320 318 316 315 313 312 312 312 312 311 311 311 310 310 310 310 311 311 311 311 311 311 311 312 313 314 315 315 315 315 315 316 317 317 318 319 320 321 322 324 326 327 328 329 329 329 329 329 329 329 329 330 328 325 326 328 328 327 328 328 329 330 330 330 329 328 327 327 328 328 328 328 329 329 329 329
313 313 312 313 314 314 314 314 314 313 313 318 323 322 322 324 325 326 326 323 321 319 317 315 314 312 311 311 311 311 310 309 309 310 309 309 310 310 310 310 310 310 310 311 311 312 313 314 315 315 315 315 315 315 316 316 317 317 318 318 320 322 324 326 327 328 329 330 330 329 329 329 330 329 327 327 327 327 327 329 330 329 329 329 330 330 328 327 326 326 326 327 327 328 329 330 330
314 314 312 313 314 314 315 314 314 314 313 316 320 320 323 323 323 324 323 320 319 318 316 315 313 312 311 311 310 310 309 308 309 309 308 308 309 309 309 309 310 310 310 310 310 311 311 312 314 314 314 314 314 314 314 315 315 316 317 317 318 319 320 321 323 325 327 328 329 329 329 329 329 329 329 329 328 327 328 329 330 330 329 329 330 330 329 328 327 326 325 326 327 328 329 329 329
Wind_Speed
2 2 1 1 2 3 3 5 5 4 4 7 6 5 2 2 2 3 2 0 1 5 6 4 3 2 3 4 5 7 11 9 6 3 2 5 8 13 14 15 16 19 20 16 21 25 21 20 17 16 15 14 14 14 16 17 17 16 16 14 13 12 11 9 8 9 10 11 10 9 9 9 11 12 14 16 18 20 21 20 20 19 17 16 16 17 17 17 17 16 16 16 15 15 15 15 15
2 2 2 2 5 2 3 5 5 3 5 7 6 5 3 5 3 5 1 3 3 5 3 4 3 1 3 3 4 4 9 11 8 7 8 8 11 12 12 15 16 18 19 16 21 25 22 20 17 16 15 14 14 14 16 17 17 16 16 14 13 12 11 10 10 10 11 11 10 9 9 9 11 12 14 16 18 20 20 19 20 19 18 16 16 16 16 16 16 16 15 15 15 15 15 15 15
3 3 3 4 5 4 3 4 6 5 6 7 4 3 3 4 6 3 4 4 5 4 2 2 1 1 2 3 2 3 6 7 8 11 11 10 10 12 14 16 16 18 19 16 20 24 22 20 18 16 14 14 14 14 15 15 16 16 15 14 13 12 11 11 11 11 12 11 10 10 9 9 11 12 14 16 18 19 18 18 19 20 18 16 16 16 16 16 16 16 15 15 15 15 14 14 14
4 5 6 4 5 5 5 5 5 6 6 6 3 4 3 4 4 4 4 5 6 5 2 2 2 2 3 1 3 4 8 7 7 9 11 9 8 13 16 16 16 17 18 16 18 21 21 20 18 16 14 14 14 15 15 15 16 15 15 14 13 13 11 11 12 12 12 11 10 10 10 10 11 12 13 16 18 18 17 17 18 19 18 17 16 15 15 15 15 15 15 15 14 14 14 12 12
5 6 8 5 4 3 4 4 4 6 6 4 2 4 4 3 4 3 4 5 5 4 4 4 2 3 2 6 5 3 7 6 7 7 10 9 8 15 17 17 16 15 16 17 17 17 20 20 17 15 14 14 14 14 15 15 15 15 15 14 13 13 12 12 12 13 12 11 11 10 10 10 11 12 13 15 18 18 17 17 17 18 19 17 16 15 14 14 13 13 13 13 13 12 12 11 10
6 6 7 5 4 1 3 5 4 7 5 3 3 5 6 3 3 3 4 3 3 3 5 5 1 4 4 5 6 5 5 5 6 6 8 8 10 16 17 17 16 15 15 18 17 14 18 20 16 15 14 13 13 13 14 14 15 14 14 14 14 14 13 13 13 13 13 12 11 11 10 10 11 12 12 14 16 16 16 16 16 17 18 17 16 14 14 13 13 12 11 12 12 11 10 10 9
7 6 6 6 3 3 6 6 5 6 1 1 4 3 4 1 4 4 4 1 1 2 5 5 3 4 5 5 5 6 4 6 6 6 8 9 13 16 18 16 15 15 15 18 16 13 18 19 15 14 13 12 12 12 13 13 14 14 14 14 14 14 13 13 12 12 12 12 12 11 10 11 12 12 12 12 14 14 14 15 15 15 16 16 14 14 13 12 11 10 10 11 11 10 9 9 9
8 6 5 6 4 4 6 5 5 4 1 1 4 3 3 5 5 6 4 2 1 2 5 5 6 4 6 4 4 5 5 7 6 7 10 11 15 16 18 17 15 15 15 16 14 13 18 18 15 14 12 12 12 12 11 11 12 12 13 12 12 12 12 11 11 12 12 13 12 12 11 11 12 12 12 12 13 13 13 13 13 13 15 14 13 13 12 11 11 10 10 10 11 10 10 10 9
8 5 4 6 4 4 5 5 5 4 3 2 3 4 5 7 6 7 5 3 2 3 6 7 7 4 7 6 6 8 5 6 7 10 11 12 14 16 18 17 15 15 15 15 14 15 19 18 15 14 11 11 11 11 9 9 10 11 11 10 9 9 9 10 10 11 12 12 12 12 11 11 13 12 12 12 12 13 13 12 12 13 13 13 12 12 12 12 11 10 11 11 11 11 11 10 10
7 6 4 4 4 4 6 5 4 3 3 3 3 4 5 7 7 6 6 3 3 6 7 7 6 3 9 8 8 8 6 8 10 11 11 12 14 14 16 16 13 14 15 14 14 15 18 17 14 13 11 10 10 9 8 9 9 9 9 9 8 7 8 9 9 10 11 12 12 11 10 11 12 12 11 12 12 13 13 12 12 12 13 12 12 13 13 12 11 12 12 11 11 12 12 12 12
7 5 4 4 5 5 5 4 4 2 2 2 2 2 4 6 6 5 6 4 4 7 9 8 6 6 9 7 7 7 7 10 11 11 12 13 14 13 14 14 12 13 14 14 13 13 16 16 14 12 10 10 9 9 9 10 9 9 8 8 8 7 7 8 9 9 10 11 11 11 10 10 10 11 10 11 12 13 13 13 12 12 12 12 13 13 14 13 13 14 13 11 12 12 13 13 14
6 5 5 5 5 4 2 2 3 2 2 3 1 4 5 5 4 4 7 6 7 8 10 8 6 9 8 7 8 7 8 11 12 12 12 12 13 12 12 13 13 12 12 14 13 12 15 15 14 12 10 10 9 9 10 10 9 9 8 8 8 7 8 8 8 8 8 9 9 10 11 10 9 10 10 11 12 12 13 13 12 11 12 12 13 13 14 14 14 14 12 12 12 13 14 15 15
7 3 5 4 3 2 2 3 1 2 3 3 4 7 6 3 3 3 7 8 8 9 10 6 6 8 6 6 8 8 9 11 13 12 12 12 12 12 12 11 12 12 12 13 14 13 14 15 14 14 12 11 10 10 10 10 9 9 8 8 7 7 7 8 8 7 7 7 8 9 10 10 9 9 10 11 12 12 13 13 12 11 11 12 13 13 14 15 14 13 12 12 13 13 14 15 17
7 4 5 3 1 3 3 3 3 4 3 5 7 8 4 1 2 2 7 10 8 6 8 7 7 7 5 5 7 10 11 11 12 13 13 12 12 12 12 11 11 11 12 13 14 14 15 15 14 15 14 12 11 11 11 10 9 8 7 7 7 7 8 8 8 7 7 8 8 8 9 9 9 8 9 11 12 12 13 13 13 11 11 12 13 12 13 14 14 12 12 13 14 14 16 16 17
6 4 5 3 3 4 5 2 2 5 3 6 7 9 3 2 1 2 3 4 7 6 8 9 5 3 5 5 7 11 14 13 13 14 14 12 12 12 12 11 12 12 12 13 14 14 15 15 15 15 15 13 13 12 11 11 10 9 7 7 7 7 7 8 8 8 7 8 8 8 8 7 6 7 7 9 10 12 13 14 13 12 11 11 12 13 12 12 13 12 12 13 14 15 17 18 18
6 5 5 4 4 4 5 4 3 4 4 6 8 9 2 3 0 1 1 1 7 8 6 7 3 1 3 2 5 12 16 15 14 14 14 13 12 12 11 11 12 13 12 13 13 14 14 15 16 16 16 15 14 13 12 12 10 9 8 7 7 7 7 7 7 7 7 8 9 9 8 5 3 4 5 7 9 10 13 14 14 13 12 11 11 12 11 10 11 11 12 13 13 15 17 18 18
6 6 5 3 5 4 5 7 4 2 6 7 9 10 5 3 1 2 1 2 8 9 5 5 5 2 3 3 8 15 18 16 14 15 14 12 12 12 12 10 11 13 13 13 13 14 15 16 16 15 15 15 15 14 13 13 11 9 9 7 7 6 6 6 6 7 7 8 9 8 8 7 4 3 3 6 9 9 11 13 15 15 14 12 11 11 12 10 9 10 12 12 12 13 15 17 17
7 5 5 4 5 4 4 5 3 3 5 7 8 10 8 1 3 2 4 6 8 9 5 6 5 2 3 5 11 16 18 16 15 15 14 12 11 12 12 10 10 11 13 14 13 15 15 17 17 16 16 15 15 15 14 14 12 10 10 8 7 7 6 7 7 7 7 7 8 8 9 9 7 4 4 5 7 9 10 12 15 16 15 14 12 11 11 10 9 9 10 11 10 11 13 15 15
9 4 4 5 3 3 3 2 3 3 5 7 7 9 8 3 3 2 4 7 9 9 7 7 6 4 5 8 13 17 16 14 15 14 13 13 12 12 12 11 10 11 12 13 14 15 15 15 16 16 16 15 15 14 13 13 12 11 10 9 8 8 8 8 8 8 7 7 7 9 9 10 9 8 7 7 6 8 10 11 14 16 17 15 14 12 11 10 9 9 9 10 9 9 10 12 13
9 5 5 4 1 2 2 0 2 4 7 7 7 9 6 3 1 2 3 7 7 7 8 8 9 8 8 10 14 17 15 13 13 13 12 12 12 12 11 11 10 11 12 12 13 15 15 14 15 15 15 15 13 12 12 12 12 11 10 9 9 9 9 8 9 9 9 9 9 9 9 10 10 9 10 8 6 7 9 11 12 14 17 17 15 13 11 10 10 9 9 9 9 8 7 8 10
6 7 6 1 2 2 3 2 2 3 6 7 8 8 3 3 3 5 5 8 6 6 8 8 8 11 12 12 16 17 14 13 13 12 12 11 11 11 10 9 9 10 11 11 10 12 14 15 15 15 14 14 12 11 11 12 12 11 10 10 10 9 9 10 10 11 11 11 11 10 10 10 10 10 10 8 6 7 7 10 11 13 16 18 17 12 10 11 10 10 10 9 8 8 8 8 8
5 8 8 1 2 3 3 3 1 3 6 7 8 7 5 4 3 6 8 5 3 4 5 5 6 10 12 13 16 17 14 13 12 12 12 11 10 9 9 8 8 9 10 10 9 10 12 13 14 14 14 13 12 12 11 12 12 11 11 11 10 10 10 11 11 11 12 11 11 11 11 11 11 11 11 9 8 8 8 8 9 12 15 19 17 11 10 12 11 11 11 9 8 9 9 9 9
7 8 8 7 7 4 2 2 1 4 7 8 7 7 7 6 2 5 7 2 6 6 3 4 6 9 12 12 14 16 13 12 12 11 11 10 9 8 8 7 8 9 9 9 9 10 11 12 13 12 13 13 12 12 12 12 12 12 12 12 11 11 11 11 10 11 12 11 11 12 11 11 11 11 11 11 10 9 10 9 8 11 14 18 17 12 12 12 11 11 11 10 9 9 9 8 8
10 6 7 9 8 6 5 3 4 5 7 8 8 7 7 5 2 3 4 0 4 4 2 4 6 9 11 10 13 15 12 12 11 10 10 9 8 8 7 7 8 9 9 10 10 10 10 11 12 11 12 12 12 13 12 12 12 12 13 12 12 12 11 10 10 11 11 11 11 11 11 11 10 11 11 12 12 10 10 10 10 10 12 16 16 12 11 12 11 11 10 11 11 9 9 8 7
13 8 6 8 6 6 6 4 5 6 7 8 7 7 6 3 1 3 4 3 2 2 2 4 6 9 10 10 12 13 12 11 10 10 9 8 8 8 7 7 8 9 9 10 11 11 11 10 12 12 12 11 12 12 12 12 12 13 13 11 12 12 10 10 9 10 11 11 12 12 12 11 11 10 10 12 12 11 10 10 11 11 11 14 15 12 12 13 13 12 11 11 11 10 9 8 7
12 13 8 8 7 6 5 6 6 5 6 7 5 5 3 2 3 5 4 2 1 0 3 5 7 9 9 9 12 13 12 11 10 9 9 8 8 8 6 6 7 7 8 10 10 11 12 11 11 12 12 11 11 11 11 11 12 13 12 11 11 11 10 9 9 9 10 10 12 13 12 13 12 11 11 12 12 11 11 10 11 12 12 13 14 14 14 14 13 12 12 12 11 10 9 8 7
7 13 11 9 9 7 6 7 6 6 7 8 7 4 3 4 6 4 6 3 3 2 4 6 8 9 8 9 11 12 11 10 9 9 8 8 7 7 6 6 6 6 7 7 7 8 9 10 10 10 10 10 11 11 11 11 11 11 11 10 10 9 9 9 10 9 10 10 11 13 14 15 15 14 13 13 12 11 11 11 11 12 13 12 13 15 15 14 14 14 13 13 12 11 10 9 7
3 8 10 10 9 8 9 9 7 6 5 5 7 5 4 6 6 3 6 3 2 2 5 7 9 9 8 8 10 10 10 9 7 7 7 7 6 6 5 5 5 5 4 5 5 5 7 7 8 8 8 9 9 9 9 10 10 10 10 9 9 9 9 9 10 10 10 10 12 14 15 16 16 16 15 14 13 11 12 12 12 12 13 13 13 16 16 15 17 16 15 14 12 12 10 9 8
5 6 7 8 8 9 11 10 7 7 4 3 5 6 8 8 2 7 5 1 1 2 5 7 9 8 7 7 8 8 9 8 5 4 4 4 4 4 5 4 4 3 2 3 4 3 4 5 6 5 6 7 7 6 6 7 8 9 10 9 9 9 10 10 11 11 11 10 12 14 16 17 17 17 16 15 13 12 12 12 12 12 13 13 13 14 15 16 19 18 16 15 12 11 10 9 8
8 8 6 6 7 8 12 11 8 7 5 4 6 7 9 7 8 9 3 1 2 3 4 7 8 7 5 5 7 7 8 7 5 4 3 3 2 2 3 3 3 3 1 1 2 2 2 2 3 3 4 6 8 8 7 6 7 7 8 9 10 10 10 10 12 13 11 11 12 14 16 18 18 18 17 16 14 13 13 12 13 13 12 13 13 13 13 16 20 20 17 15 14 12 11 10 9
8 8 6 5 6 8 12 11 10 9 5 6 9 7 6 9 10 9 5 2 3 3 2 3 5 4 3 4 6 8 10 8 5 4 4 4 3 3 3 3 4 4 2 1 2 3 1 0 1 2 5 9 10 11 11 10 9 9 9 10 11 11 11 11 12 12 12 11 12 13 16 18 19 19 19 17 16 15 14 13 13 14 13 13 13 14 13 15 18 19 18 16 15 13 11 10 10
7 7 7 7 6 8 12 10 10 8 6 9 10 6 6 10 10 10 6 2 2 2 1 0 1 2 3 4 7 10 10 9 7 3 3 3 2 3 3 4 4 3 3 1 2 3 3 3 2 3 7 9 11 13 13 13 12 12 12 12 13 12 11 12 12 12 12 12 12 14 16 18 20 20 20 18 17 17 15 15 14 15 15 14 13 14 15 15 15 17 18 17 15 13 12 11 10
7 7 7 8 8 7 10 10 9 7 7 11 11 6 5 8 9 10 8 3 1 3 2 1 3 3 4 4 8 10 9 10 9 6 4 2 1 2 2 2 2 2 2 3 4 3 3 4 3 5 7 8 9 11 13 14 14 14 14 15 14 12 11 12 12 13 14 13 13 14 16 18 19 21 20 18 18 19 17 16 16 16 16 15 15 15 15 15 14 15 17 17 16 14 13 13 12
7 8 6 8 10 7 9 10 10 9 9 11 10 3 6 8 8 11 12 8 3 2 2 3 4 5 4 4 7 8 9 11 9 7 5 5 4 4 1 2 4 4 4 4 4 4 2 1 3 4 5 6 9 11 13 15 16 17 16 15 14 13 13 13 14 15 15 15 14 15 16 18 20 21 21 20 21 20 19 18 18 17 17 16 16 16 16 15 15 17 19 19 18 16 14 13 12
9 9 6 7 9 8 9 11 11 13 12 12 10 5 8 8 9 12 14 12 8 6 5 4 5 5 4 4 6 7 8 9 7 5 5 5 4 4 4 4 4 5 4 4 4 3 1 2 3 1 2 6 9 12 14 15 17 19 20 18 17 16 16 16 17 17 17 17 16 16 17 18 19 21 22 23 23 22 20 19 19 18 17 16 17 18 19 17 17 19 21 20 19 17 15 12 11
11 11 8 8 9 7 7 10 8 12 13 10 10 8 8 9 10 11 13 12 11 10 8 7 7 7 7 8 7 7 7 7 5 4 4 4 4 5 4 3 3 5 5 5 4 2 1 3 3 1 3 7 7 10 14 15 16 19 20 20 19 19 19 18 18 18 18 18 18 19 18 18 19 21 23 24 23 22 22 21 20 19 17 16 16 18 20 19 19 21 21 21 20 18 16 13 11
11 11 10 9 11 9 8 9 6 7 8 6 7 9 10 10 9 10 11 12 12 12 11 10 10 10 10 10 10 10 9 8 7 6 6 5 6 6 5 4 4 4 6 6 6 5 4 5 4 4 5 4 5 8 12 14 15 17 18 18 19 20 19 19 18 18 19 19 19 20 19 18 19 21 23 23 23 23 24 23 22 21 19 18 17 17 18 19 20 21 21 21 21 18 16 15 13
10 10 9 9 10 9 9 9 6 4 5 6 9 10 10 10 9 10 11 12 14 14 13 12 12 12 12 13 16 16 16 14 13 12 10 8 8 8 7 7 5 3 5 8 7 5 3 4 4 4 6 5 6 7 10 12 12 12 13 14 16 17 18 18 18 18 19 20 20 20 19 19 20 22 23 23 25 25 25 24 24 23 22 21 20 18 18 18 19 19 20 20 20 19 17 16 16
9 8 9 8 8 9 10 8 7 5 4 7 10 9 9 10 9 10 11 12 14 14 15 15 15 16 16 16 18 18 18 17 16 14 12 11 10 10 9 8 6 5 5 5 3 1 0 2 3 5 6 6 6 7 8 9 9 9 9 10 11 13 15 16 17 17 19 19 19 18 18 20 22 24 24 25 27 26 25 26 26 26 25 23 21 20 20 20 19 19 19 19 18 18 17 16 17
9 8 8 8 10 10 8 7 8 5 4 8 11 8 7 8 9 9 10 12 13 14 15 17 17 18 19 20 20 20 19 18 17 15 13 12 11 10 9 8 7 5 4 3 2 1 1 3 5 5 5 6 6 6 6 6 6 7 8 8 9 10 12 14 15 17 18 19 19 19 19 20 21 23 25 27 27 26 27 27 27 28 28 26 23 22 22 21 20 20 20 19 18 18 17 17 18
10 10 9 8 11 9 6 10 10 6 6 10 12 8 5 6 8 8 8 10 12 13 14 16 16 17 19 21 22 21 20 19 18 17 15 13 12 11 9 8 7 5 4 3 2 2 2 1 3 3 5 6 5 5 4 4 5 6 7 8 8 8 10 12 13 14 16 17 17 18 18 20 20 22 25 27 28 28 28 28 29 30 30 29 25 23 23 22 22 21 21 20 19 19 17 18 19
9 12 10 8 12 9 9 14 11 7 7 11 12 8 6 6 7 8 7 8 10 12 14 14 15 16 18 20 20 20 20 19 18 17 16 15 13 11 10 9 8 7 7 6 5 5 5 3 3 2 4 5 4 3 3 3 5 6 7 9 8 9 11 11 11 11 13 14 15 16 17 19 20 21 23 25 28 29 28 28 30 30 29 29 27 25 25 24 23 23 22 21 21 20 18 18 20
8 11 11 7 11 10 11 13 11 6 6 10 11 8 6 7 6 8 8 9 11 11 13 14 14 16 17 19 19 18 18 17 17 17 17 15 14 12 11 8 6 7 7 6 6 6 6 5 5 4 4 4 4 3 3 3 4 6 7 8 9 9 10 11 11 12 12 14 16 16 17 19 20 20 22 24 27 29 28 28 29 28 28 29 28 26 26 25 23 23 23 21 21 21 20 19 19
6 13 14 10 9 10 11 11 9 5 5 9 11 9 5 7 7 9 10 10 11 10 11 12 13 15 17 19 18 18 17 16 16 17 17 15 13 11 9 6 4 5 6 7 5 6 6 6 5 5 5 5 5 6 5 4 5 6 6 7 7 7 9 11 13 13 14 15 16 15 15 17 18 19 22 24 25 27 27 27 27 27 27 27 28 28 27 26 24 23 22 22 21 20 21 22 20
4 11 15 12 9 10 10 10 8 5 5 8 12 10 7 7 8 9 11 10 10 9 9 10 12 14 16 17 17 16 17 17 17 18 17 15 13 11 8 5 5 6 7 8 8 7 6 6 6 6 7 6 6 8 8 6 5 4 5 6 7 7 7 9 10 12 13 13 14 14 13 16 17 18 21 21 21 23 25 25 24 25 25 25 28 29 29 27 25 23 22 22 21 21 22 23 22
5 10 11 10 8 8 7 8 7 6 6 9 12 13 9 6 8 10 10 9 9 8 8 9 12 14 15 15 15 14 14 14 16 17 17 16 14 12 10 7 7 8 9 10 10 9 8 6 5 6 6 6 6 7 8 8 6 5 5 6 7 7 8 8 9 10 11 12 13 13 13 14 14 15 17 17 17 19 23 26 23 20 20 22 26 29 29 28 25 23 22 21 21 22 23 24 24
8 9 10 8 8 7 6 7 6 7 8 10 14 15 11 6 8 8 7 7 9 9 7 8 11 13 14 14 14 14 14 13 13 14 15 14 13 12 11 10 10 10 10 11 11 11 10 9 7 6 7 7 7 7 7 7 7 7 6 6 7 8 10 10 11 10 10 11 13 12 12 11 10 10 11 11 13 14 18 23 21 16 16 20 24 27 27 27 25 24 23 22 22 23 24 24 24
8 9 9 8 8 6 6 7 6 8 9 8 13 14 11 7 7 7 8 9 10 10 9 9 10 12 13 14 14 15 14 14 13 13 13 13 13 13 13 12 12 11 11 11 12 12 11 11 10 10 10 10 10 10 9 9 9 8 7 8 9 10 11 12 12 11 9 10 12 12 11 10 8 7 8 8 9 11 13 16 17 17 18 21 24 26 26 26 26 25 25 25 24 24 24 24 23
10 10 10 10 9 8 9 9 8 8 5 6 10 12 8 3 6 10 12 11 12 12 11 11 12 13 13 13 14 14 14 14 13 13 13 14 15 15 15 15 14 13 14 14 13 12 12 12 13 12 11 11 11 11 11 11 10 10 9 10 11 12 12 11 10 10 9 9 11 11 11 10 8 8 8 8 9 10 12 14 16 18 20 20 22 24 26 26 25 26 26 27 26 24 25 25 23
12 10 10 10 9 9 10 9 9 9 5 5 7 10 7 4 7 12 13 13 14 15 14 13 14 14 14 13 14 14 14 13 12 13 14 16 16 15 15 15 15 14 15 14 14 14 13 13 15 14 13 13 12 11 10 10 10 10 10 11 12 12 12 11 10 9 9 9 10 11 11 9 8 7 8 9 10 11 13 14 15 17 19 20 21 23 25 26 26 26 26 26 25 24 25 25 23
12 11 10 10 8 8 9 9 10 10 7 7 6 7 6 6 7 12 14 14 16 16 14 14 14 13 13 13 13 13 13 11 11 12 14 15 15 14 13 14 14 14 13 12 12 13 12 13 15 16 15 14 14 12 11 10 8 9 10 11 12 11 11 11 11 10 9 10 11 11 11 9 8 8 8 10 11 12 14 15 16 17 18 20 21 22 25 26 26 26 26 25 24 25 25 24 23
11 11 11 10 10 8 5 2 4 7 8 7 5 2 3 5 8 12 13 14 15 16 15 15 14 13 12 13 13 12 11 10 10 11 13 14 13 12 12 12 13 12 12 12 12 12 12 12 13 14 14 14 13 13 14 13 11 11 11 10 10 9 8 9 10 10 10 10 11 11 11 10 9 8 10 11 11 12 14 15 17 18 18 19 19 21 24 26 26 26 25 24 23 25 25 23 23
7 10 11 6 6 7 6 2 2 4 8 6 4 4 6 6 7 10 12 12 13 13 14 15 13 13 13 13 13 12 11 10 10 10 11 12 12 12 12 11 12 12 11 11 11 12 12 12 11 12 12 12 11 12 14 14 13 14 13 11 9 7 7 8 9 10 10 10 11 11 12 11 9 9 10 11 12 12 14 16 18 19 19 19 19 21 24 26 27 27 25 23 22 24 25 25 26
7 10 11 5 2 4 7 6 4 6 8 5 5 9 10 7 5 9 12 12 11 10 13 14 13 13 14 13 12 11 10 9 9 9 10 11 11 12 12 11 12 12 11 11 11 11 11 12 12 12 11 10 10 10 11 12 13 14 14 12 9 7 7 8 9 10 10 11 11 12 12 11 9 9 9 11 12 13 14 16 17 19 20 21 21 23 25 26 27 28 27 24 22 24 26 27 27
8 9 11 8 5 6 7 7 7 9 8 5 9 11 10 7 7 10 13 12 12 11 11 12 12 13 13 12 11 10 10 8 8 9 9 11 12 12 12 12 12 11 11 11 11 10 11 13 14 13 13 12 11 9 9 8 9 10 11 11 10 9 8 8 9 11 11 11 11 11 12 12 11 10 10 11 12 13 15 16 17 18 20 21 22 24 25 26 26 27 27 26 25 25 27 27 27
8 9 10 8 6 7 8 6 6 9 8 6 9 10 7 5 8 13 14 13 14 12 10 11 13 13 12 11 10 10 9 8 9 9 10 11 12 12 12 12 12 11 11 11 10 10 11 13 13 13 14 13 12 10 10 9 8 8 10 10 9 9 10 10 11 11 11 12 13 13 12 12 12 12 12 12 13 14 14 16 17 18 21 22 22 24 26 26 26 26 26 27 27 27 26 26 26
9 8 11 10 6 5 8 6 4 7 8 8 7 8 6 3 4 10 14 13 13 13 12 13 15 15 13 12 10 9 9 8 9 9 10 11 11 11 12 11 11 11 11 11 11 11 12 12 12 13 13 13 12 12 12 11 10 10 10 10 10 9 10 11 12 12 11 12 13 13 14 14 13 13 13 13 14 15 15 16 17 18 21 22 22 24 26 27 26 26 27 27 28 28 27 26 26
11 10 11 11 8 7 8 7 4 5 6 7 7 7 5 5 4 6 11 11 12 14 15 16 16 15 13 12 11 10 9 9 9 9 10 11 11 11 11 12 12 12 12 12 12 12 13 14 13 13 14 14 14 14 14 12 12 12 11 11 11 11 11 11 11 12 12 13 12 13 15 15 14 13 14 14 15 15 16 16 17 19 20 21 22 24 25 26 26 26 28 28 28 29 28 27 25
Wind_Direction
259 238 212 225 140 139 205 225 245 205 234 257 246 260 154 132 335 239 218 161 198 66 32 25 50 322 307 342 33 57 34 21 8 1 93 115 148 154 159 164 168 168 165 167 173 174 173 176 177 180 181 183 187 189 190 187 186 184 185 186 189 192 191 186 171 161 145 134 135 130 117 109 109 106 106 113 118 122 126 125 121 115 113 114 113 113 112 113 114 114 112 110 110 111 111 112 111
191 188 180 167 148 182 214 212 256 220 225 254 241 240 110 114 178 209 116 38 30 42 21 25 53 23 339 357 41 77 53 41 40 68 103 130 140 150 162 164 169 168 165 168 173 174 173 175 178 180 181 183 186 190 191 189 188 187 188 189 191 191 188 179 168 157 143 138 139 132 122 115 113 111 112 116 120 124 126 125 122 118 116 117 116 114 114 116 115 113 111 111 113 113 113 113 113
171 163 159 160 162 225 230 206 252 245 234 261 244 175 124 176 185 143 58 17 360 345 303 312 251 51 294 204 57 38 68 61 75 94 114 129 138 156 163 163 169 169 167 165 169 174 174 174 178 179 180 182 184 189 189 188 188 188 189 189 190 187 182 174 164 154 145 144 142 135 129 122 117 114 117 121 122 125 128 126 125 121 118 120 118 115 115 116 114 111 110 111 112 112 111 111 114
171 164 157 178 195 216 222 218 245 255 247 263 265 124 144 195 159 101 48 360 340 314 258 249 169 76 324 100 51 52 84 85 92 100 123 135 153 159 161 165 168 168 169 163 165 174 176 174 176 178 178 180 182 185 185 187 188 188 188 187 187 181 175 170 162 154 149 147 144 141 137 128 121 118 119 125 125 128 132 129 128 126 123 124 123 122 120 118 117 113 110 110 110 110 111 111 111
164 167 159 191 230 215 228 241 241 248 250 274 302 96 135 146 102 63 16 358 341 315 221 227 120 111 36 48 14 60 92 98 105 102 127 144 160 157 162 166 165 167 168 162 164 174 177 176 175 176 176 179 180 180 181 183 186 187 186 186 183 175 172 169 161 155 151 148 147 149 143 133 126 123 121 126 128 133 139 137 133 132 132 133 132 130 124 120 117 114 113 111 112 113 113 113 110
154 168 164 197 252 266 243 239 228 234 246 295 300 88 118 122 50 351 345 360 7 345 207 223 321 128 121 64 38 67 102 122 116 116 135 152 153 155 161 162 162 162 165 163 165 172 175 176 174 174 176 177 175 176 179 181 184 186 185 184 180 174 172 168 161 157 153 153 154 155 148 136 130 129 124 123 130 137 143 143 141 139 139 140 139 133 123 118 115 113 112 110 112 114 114 112 108
163 177 177 198 213 215 242 240 239 234 188 314 282 64 106 67 353 316 327 314 116 100 195 214 221 161 115 111 91 75 99 114 117 130 145 156 148 154 157 157 161 159 165 166 165 172 173 175 174 174 175 173 171 173 177 181 181 183 184 184 180 176 172 166 163 160 157 158 159 158 152 138 131 133 129 121 125 134 141 145 147 144 143 144 139 131 123 118 114 111 107 107 110 112 112 110 109
171 186 194 220 207 203 244 243 247 254 105 38 284 313 322 319 320 294 304 267 176 139 192 189 204 198 115 135 125 101 107 111 124 133 141 148 145 153 154 157 161 159 167 165 167 177 173 173 174 174 172 168 168 171 173 175 176 181 185 185 183 177 171 166 166 164 162 163 162 160 154 140 132 134 134 126 124 130 136 143 148 145 144 143 134 128 125 119 115 110 108 110 111 111 112 111 110
178 203 203 233 236 212 239 239 243 256 250 270 272 281 295 299 296 287 279 243 244 196 183 167 202 211 129 144 113 115 128 121 133 135 140 142 144 154 156 159 160 162 166 164 175 181 174 173 175 172 168 166 166 168 164 163 167 178 184 185 183 176 170 166 168 169 168 166 163 162 158 143 134 137 140 133 129 132 134 139 144 144 144 139 129 128 125 121 118 114 113 112 109 110 110 109 109
187 218 220 231 242 227 231 229 230 231 233 258 274 281 295 294 290 277 260 237 193 182 161 152 197 181 137 143 115 133 153 132 139 141 143 143 148 156 154 155 159 166 164 167 180 178 173 173 175 169 163 164 165 163 153 148 153 166 175 178 176 174 169 164 170 173 171 168 165 165 160 148 137 139 142 136 134 135 137 140 145 145 144 137 130 129 125 123 123 122 119 112 109 109 109 108 106
194 206 232 235 230 233 232 221 218 200 178 238 250 305 322 305 296 261 234 203 175 174 160 167 183 154 146 137 116 158 162 135 146 148 149 150 150 153 152 152 160 169 165 167 178 176 173 172 172 168 161 161 163 159 149 144 144 151 160 164 166 167 162 159 168 174 172 170 169 165 157 152 143 140 142 141 140 139 141 144 148 149 145 138 132 129 126 126 128 127 122 115 113 111 108 107 103
218 182 207 236 233 233 246 250 234 218 180 202 110 27 342 295 274 218 203 185 176 170 166 181 170 153 159 137 124 158 151 136 154 156 151 151 149 153 154 156 161 167 165 166 173 176 176 174 172 167 162 163 164 158 151 146 146 152 156 157 157 154 148 145 150 158 161 166 169 161 154 157 153 146 146 148 147 144 144 147 151 155 152 142 134 130 127 128 132 130 123 119 117 112 106 105 103
232 192 213 238 244 245 249 255 227 208 183 130 35 6 339 274 249 202 187 174 170 163 157 168 159 158 156 128 133 154 150 146 160 158 150 152 155 158 158 161 162 161 161 167 175 177 177 179 178 172 166 165 162 157 155 151 154 162 161 156 150 141 132 126 129 133 135 146 158 156 158 163 163 156 150 153 154 150 150 153 156 160 160 149 140 135 130 129 133 129 122 120 116 109 104 103 104
226 218 240 238 214 251 241 241 187 192 161 81 29 359 342 312 301 211 181 170 158 139 128 145 162 164 156 146 158 164 161 157 158 154 153 158 159 159 160 164 165 161 164 174 178 178 180 180 181 177 168 167 161 154 157 159 165 170 164 155 144 134 125 121 125 127 125 133 146 154 161 165 169 167 158 156 158 158 157 159 163 167 168 159 148 142 136 133 134 129 121 120 115 108 103 102 102
220 215 243 249 212 222 217 225 187 194 107 66 25 4 350 62 15 202 196 172 130 116 127 143 169 176 163 169 168 165 167 161 157 156 155 161 160 158 161 169 170 168 173 177 176 177 179 174 178 180 173 171 163 156 163 166 174 175 165 155 145 137 128 124 126 129 130 133 138 142 147 156 171 175 172 166 162 164 165 166 170 173 175 172 160 149 142 137 135 131 126 123 116 109 105 101 100
212 213 229 241 219 203 192 181 179 191 90 67 30 11 8 108 40 250 331 4 123 139 151 144 157 129 105 98 125 151 168 163 157 159 156 160 162 158 164 174 177 176 179 174 172 175 175 173 177 181 178 175 165 163 170 171 177 176 164 155 148 140 130 125 128 135 132 132 134 132 135 140 161 179 188 185 173 171 173 174 176 178 180 184 174 157 149 146 141 135 132 129 118 111 107 102 100
200 223 228 224 217 200 175 175 168 140 88 62 34 18 4 115 161 299 116 171 145 149 150 140 148 107 87 84 116 147 170 164 154 160 158 159 160 163 167 172 177 180 185 177 175 177 177 179 181 183 181 178 172 169 174 177 178 174 164 159 154 146 140 134 135 146 141 136 134 134 144 152 172 205 216 201 187 183 182 180 180 182 185 188 187 171 159 155 150 141 135 134 123 113 108 105 102
195 220 223 219 215 185 156 164 108 61 65 34 24 20 358 56 140 167 168 154 147 152 146 155 159 145 138 119 130 155 173 162 153 160 160 161 161 167 170 171 177 179 187 185 181 182 183 186 185 186 185 181 178 174 177 182 179 173 172 172 169 165 163 155 155 166 162 150 148 154 162 166 181 201 221 217 197 190 187 186 186 186 188 190 193 187 172 164 158 149 138 138 130 116 108 104 103
211 223 220 227 213 116 90 87 54 23 11 10 12 15 359 10 116 161 192 153 153 165 156 171 168 155 156 133 141 158 164 156 156 162 163 165 164 170 173 176 180 179 187 189 188 187 188 192 188 186 186 184 181 176 178 182 182 179 180 183 185 186 185 181 179 185 188 180 176 179 175 175 181 186 207 225 214 198 191 190 190 190 191 191 196 196 184 170 163 155 144 141 139 125 110 101 101
217 221 226 223 173 105 123 203 4 3 353 352 359 358 359 25 38 282 215 157 173 183 156 178 179 157 152 141 149 154 154 157 161 164 163 163 165 173 177 179 184 185 187 189 195 192 188 192 190 188 190 191 184 177 178 180 185 187 188 193 197 199 196 195 192 192 199 196 193 194 186 183 184 190 207 224 224 211 199 191 193 196 194 193 197 199 194 178 164 159 152 150 147 136 122 109 107
201 214 240 175 116 216 172 190 296 358 346 337 341 335 350 17 294 256 211 169 183 186 158 177 174 160 159 148 151 155 156 161 162 164 163 164 168 173 177 181 185 187 189 189 196 200 197 194 192 192 193 195 187 182 185 187 193 193 194 201 203 207 204 202 200 200 208 207 206 206 200 191 188 196 207 216 218 213 207 194 191 195 195 197 195 192 196 188 172 166 160 158 154 144 143 139 126
203 216 247 283 197 225 146 137 344 347 328 321 324 327 349 339 262 219 223 201 123 110 136 164 152 161 173 161 156 157 158 164 165 165 165 168 168 171 176 178 185 186 187 189 190 199 205 200 194 195 197 197 192 191 194 198 202 195 198 207 208 212 212 209 208 211 217 219 220 218 212 201 196 206 207 206 206 209 213 199 190 194 196 198 191 182 195 194 185 179 168 163 162 157 155 147 134
225 216 228 240 235 231 164 160 300 322 307 308 320 333 332 304 205 183 236 270 51 51 75 142 144 167 180 174 164 156 160 168 166 164 165 167 165 171 173 170 185 186 184 186 186 196 202 201 199 201 204 204 200 197 199 205 203 196 205 214 214 216 216 214 216 222 225 225 227 224 217 207 206 216 213 206 202 202 211 204 199 202 196 194 187 183 193 190 188 189 180 174 169 167 163 152 141
233 227 203 222 232 231 236 244 265 292 293 299 312 312 298 277 161 165 221 108 35 26 81 142 156 175 176 172 163 152 161 171 166 165 161 163 168 174 171 170 181 180 185 188 184 193 197 198 200 200 202 205 206 206 207 210 208 207 214 216 217 220 217 216 218 224 228 226 227 225 217 210 210 217 216 211 205 200 209 210 209 206 196 192 188 190 194 187 191 192 187 182 172 170 169 159 152
228 236 205 209 217 220 233 242 250 270 280 287 295 284 270 264 184 182 180 123 26 15 122 149 162 175 168 161 156 147 160 171 168 168 161 162 173 174 168 171 177 173 184 192 191 194 191 190 198 200 200 204 207 208 209 212 214 217 219 218 220 222 219 218 218 223 229 228 226 223 219 216 213 212 211 211 208 203 205 211 212 203 191 193 191 190 193 192 198 195 186 186 177 173 174 169 166
212 225 222 212 213 212 219 230 242 256 267 273 272 250 219 194 208 192 162 144 269 166 151 154 159 168 155 150 152 146 155 169 168 169 165 166 175 177 174 174 175 175 182 192 196 194 192 194 202 206 207 206 206 205 206 210 215 218 218 219 222 224 222 222 224 228 230 230 228 225 220 219 215 208 205 205 206 205 204 207 213 209 199 201 195 190 194 196 200 198 190 189 182 175 177 181 178
195 218 225 226 226 218 225 235 242 251 253 257 251 223 153 174 217 184 138 180 238 167 162 166 166 162 146 142 151 148 153 166 169 168 168 173 181 180 181 182 178 182 186 190 191 188 195 204 210 210 207 208 207 203 206 211 214 217 219 220 224 227 226 227 234 236 234 231 230 228 223 222 219 210 204 201 202 206 207 205 209 214 211 211 200 192 197 196 198 202 197 194 188 181 183 188 184
176 209 220 226 230 223 228 231 228 239 241 239 239 212 165 196 221 72 91 158 233 172 169 172 170 159 147 144 148 150 151 160 165 166 172 176 186 189 189 190 179 183 189 192 197 196 198 210 218 214 207 213 214 207 211 214 214 220 223 223 227 230 230 232 239 241 239 235 232 232 230 227 225 219 211 204 203 207 211 209 207 213 215 216 210 202 204 199 198 204 204 202 199 193 190 193 193
191 202 218 201 208 217 216 215 209 222 225 210 228 202 183 186 128 41 47 91 334 222 184 173 175 160 151 147 143 140 139 147 149 156 179 175 187 201 201 204 183 174 198 204 207 216 213 214 222 222 216 218 218 213 219 219 216 225 229 229 232 235 236 235 239 243 241 238 235 236 237 234 230 226 220 211 209 212 214 214 211 214 216 217 217 213 215 208 203 206 207 205 205 204 202 204 208
197 207 234 187 189 206 194 196 195 209 221 215 231 208 174 144 71 37 17 348 322 246 191 176 179 161 147 141 133 120 112 118 120 128 167 168 178 204 211 232 202 177 234 267 221 231 232 206 206 224 236 229 224 222 229 234 226 229 233 234 236 237 239 239 242 247 245 238 236 239 243 242 236 230 227 218 214 218 219 219 217 217 217 217 217 218 219 215 211 211 211 209 208 207 206 208 212
192 194 229 214 201 181 167 181 191 195 195 202 232 226 146 99 59 32 24 349 296 249 196 171 173 150 123 114 102 89 85 89 102 139 172 161 147 159 183 216 211 203 223 280 252 236 252 312 221 245 249 239 231 230 235 240 235 234 239 240 243 241 239 242 246 252 253 244 236 239 245 247 240 232 228 224 218 221 223 222 220 218 217 216 216 217 217 217 216 215 213 212 211 208 206 207 208
194 188 203 214 209 158 150 175 195 196 176 187 224 224 120 81 52 33 27 354 300 268 237 102 119 94 77 87 87 85 83 79 80 97 158 152 146 154 174 192 200 204 195 249 293 270 267 275 304 293 261 247 237 232 233 237 236 236 239 244 251 252 246 245 248 253 257 253 243 240 244 247 246 237 230 228 223 222 225 225 222 219 217 215 215 216 216 215 216 216 215 213 211 207 207 207 209
194 204 198 194 202 165 149 170 194 202 170 179 221 236 104 76 53 43 34 23 306 268 257 17 13 32 43 71 89 93 92 80 68 58 72 84 88 133 175 208 234 250 253 301 330 333 282 250 295 299 266 258 250 241 237 238 240 238 239 246 254 258 253 249 250 254 258 258 250 243 243 246 249 243 234 232 229 224 224 226 225 222 220 217 216 216 216 214 212 213 214 214 213 210 210 211 213
183 207 204 185 198 181 151 160 175 190 186 183 206 231 84 78 57 51 40 34 37 303 316 9 8 22 30 57 91 95 86 77 66 54 59 59 63 84 57 325 307 303 315 333 355 360 326 212 330 296 260 277 270 253 245 240 240 240 239 244 251 254 255 252 251 255 257 257 252 245 243 242 247 247 237 232 234 230 225 226 226 225 224 221 219 217 215 213 212 213 213 213 212 212 212 212 216
180 191 191 179 195 195 164 156 163 183 196 189 179 140 95 83 57 49 39 34 41 31 19 21 21 29 36 54 88 90 78 75 70 52 44 48 63 68 37 7 343 337 352 3 11 1 319 35 10 301 253 300 276 250 246 241 238 239 239 239 242 246 251 253 252 253 255 256 255 250 245 240 243 247 240 233 236 236 230 227 228 227 226 224 221 217 215 211 211 215 215 212 212 212 214 212 214
181 181 186 179 185 195 160 136 147 182 191 187 173 143 101 77 58 51 43 40 45 43 41 45 47 51 53 59 75 80 75 78 75 51 34 44 73 82 70 50 17 1 10 20 28 30 333 349 3 322 316 308 274 241 239 240 235 236 238 236 237 242 247 252 254 253 255 256 257 254 250 244 243 246 244 237 236 239 236 232 229 228 226 224 220 216 215 212 213 219 218 213 213 213 214 214 213
180 183 191 184 183 183 149 128 129 182 183 153 140 124 93 72 63 56 50 50 49 47 49 49 52 54 55 63 75 81 80 81 82 68 56 64 82 84 77 64 48 23 31 44 43 38 5 341 330 313 316 293 256 246 245 243 236 236 240 239 238 242 246 252 255 256 256 255 256 256 252 247 247 249 249 244 238 238 237 234 231 229 225 222 218 211 210 209 213 221 220 216 216 215 215 217 217
187 192 189 185 188 171 146 139 134 178 182 136 130 116 90 77 70 62 57 56 50 47 50 52 53 56 60 65 71 76 78 79 83 79 71 75 78 69 60 57 59 55 52 51 38 24 358 330 313 293 287 261 248 256 255 253 247 247 253 251 246 246 248 251 253 256 258 259 259 258 254 251 252 253 254 248 239 235 235 235 235 231 224 219 217 210 206 206 208 217 217 215 216 215 218 219 219
195 198 189 189 179 143 129 132 137 178 195 151 143 123 94 84 77 70 66 66 61 57 58 60 62 64 67 68 68 73 75 76 81 80 76 77 72 64 65 62 59 67 65 59 44 40 149 258 261 260 272 278 277 263 254 260 260 261 266 262 254 251 252 252 252 255 259 263 265 263 260 261 259 256 255 252 245 238 234 233 234 234 226 220 218 214 211 208 207 212 213 213 212 214 218 217 216
205 200 193 190 170 155 150 143 140 165 185 158 150 131 111 104 94 83 77 81 76 68 68 67 68 69 70 71 70 70 71 71 72 71 75 85 82 69 67 68 71 85 90 100 154 132 116 222 236 251 268 274 279 270 262 267 269 270 269 263 257 251 251 253 254 256 259 263 266 268 268 269 268 261 257 253 249 242 237 234 233 233 229 223 218 215 213 210 209 210 210 210 209 210 214 215 217
207 204 202 188 177 179 152 137 139 141 156 163 159 147 139 133 118 105 95 94 81 72 74 69 65 68 69 68 66 66 66 66 65 65 73 87 86 70 69 89 100 99 88 84 84 45 32 286 248 271 281 277 280 283 284 288 292 296 289 280 273 262 259 259 259 262 266 268 273 279 279 276 276 270 261 254 250 245 241 238 235 234 231 226 220 216 215 214 212 213 212 212 212 211 213 218 222
199 206 214 191 179 174 128 137 152 155 168 179 185 187 165 152 130 119 116 104 85 74 74 66 58 61 63 62 61 61 61 65 70 73 81 93 98 90 91 101 92 62 45 37 24 18 14 5 360 330 299 293 295 293 275 272 289 299 294 288 287 282 278 276 276 277 278 278 281 288 290 285 279 272 265 258 254 250 246 243 241 238 234 230 225 221 220 218 217 219 219 217 218 215 214 222 224
197 194 209 199 182 174 149 161 178 185 182 184 205 224 175 160 144 131 135 117 98 81 71 65 57 55 58 59 59 58 56 60 68 75 82 93 102 105 103 101 83 50 31 19 13 14 9 2 359 353 335 318 313 313 293 277 288 301 304 300 295 290 287 287 288 287 284 283 284 290 293 288 279 271 267 263 257 253 249 244 241 239 236 233 232 228 224 222 220 221 221 219 220 218 216 222 223
197 171 191 201 191 185 174 183 199 196 161 172 207 237 204 169 156 150 152 128 105 88 72 67 61 56 56 57 58 57 55 55 61 69 75 80 85 92 96 88 54 17 2 358 358 4 8 6 359 350 344 334 325 318 310 300 293 298 309 308 303 301 296 290 286 285 284 285 291 296 291 284 279 272 267 264 258 252 248 242 235 237 240 237 235 232 227 223 221 220 220 218 219 219 220 222 223
173 153 187 200 202 204 196 198 204 183 171 189 202 222 219 168 152 163 164 141 113 97 81 71 65 60 57 57 57 56 55 57 62 66 67 68 69 70 72 60 23 360 357 3 359 351 350 353 359 354 346 344 335 322 319 320 307 299 304 297 293 301 300 293 288 288 290 291 295 297 289 284 283 275 267 262 255 247 242 239 231 228 233 236 236 233 228 223 220 220 221 219 220 220 221 223 224
132 145 185 195 207 222 216 216 205 177 204 213 191 199 217 170 155 177 176 155 129 108 90 79 72 66 62 59 57 56 55 56 58 60 61 63 61 56 53 43 26 19 18 16 9 2 352 344 350 354 348 349 346 335 331 330 316 298 289 283 287 296 295 292 289 289 293 293 292 290 285 286 285 279 270 255 248 244 236 237 235 220 216 229 237 234 228 223 219 221 224 223 223 223 223 224 221
136 159 184 185 202 218 224 232 222 194 214 219 189 193 216 192 167 175 162 140 131 123 107 90 77 67 63 59 58 56 55 54 52 52 53 54 54 49 45 39 34 30 23 15 9 8 7 3 358 350 342 340 340 335 327 321 311 297 288 287 291 293 292 292 289 286 287 287 288 286 280 280 280 281 275 251 243 245 235 238 244 232 216 225 235 235 229 222 217 220 226 226 227 228 226 225 219
170 186 190 186 192 202 210 212 220 217 215 205 179 186 215 212 175 149 119 107 116 119 111 97 82 70 63 59 58 56 54 53 50 48 46 47 47 42 38 37 35 30 22 14 6 360 359 1 358 350 346 345 342 338 331 326 320 314 309 303 300 301 300 295 287 283 280 279 281 281 274 272 275 274 269 260 253 251 243 240 243 239 230 228 234 237 232 225 219 220 225 228 230 229 227 226 223
200 200 191 192 186 189 206 200 205 216 199 163 164 180 207 198 123 124 118 107 103 101 98 98 90 80 72 65 61 57 52 50 47 46 46 47 45 39 36 36 34 29 21 16 12 6 359 356 354 349 349 351 348 342 335 327 319 314 309 304 303 306 306 299 287 280 278 274 272 272 269 270 276 266 255 263 265 257 252 247 242 239 238 237 238 237 233 228 223 222 225 229 231 228 225 226 225
204 201 193 199 187 185 201 197 199 203 161 124 165 184 183 141 114 119 118 114 109 103 99 98 91 84 77 72 68 61 54 49 46 48 49 50 47 41 38 34 30 25 18 15 16 13 7 3 1 358 357 359 358 352 341 328 314 305 300 299 299 300 305 304 294 284 282 280 270 263 261 260 268 267 259 264 266 255 248 244 241 238 237 239 240 234 227 223 223 225 228 231 231 228 224 223 223
204 206 203 207 204 195 198 200 202 197 158 128 164 190 178 163 134 117 119 121 115 109 104 98 90 85 81 76 71 64 57 50 48 51 54 55 49 40 33 27 22 18 13 13 13 10 6 7 6 3 2 1 3 4 359 352 338 318 302 294 293 298 306 307 300 295 292 284 271 262 257 250 252 260 260 263 263 256 248 241 236 235 233 233 235 231 223 220 224 226 230 234 231 228 227 222 221
201 209 211 211 216 204 181 216 223 181 154 136 150 164 106 119 115 118 128 125 117 114 108 99 91 88 83 76 70 65 59 53 50 51 54 54 49 40 32 23 17 13 7 4 6 8 7 6 4 4 2 357 355 359 358 355 351 343 330 314 307 306 306 301 296 296 290 278 270 264 259 251 250 255 255 258 262 260 258 250 239 233 233 231 231 229 221 220 225 227 232 233 227 228 230 226 225
182 205 210 206 236 217 166 120 44 151 169 158 149 136 115 117 121 134 141 126 120 121 108 100 95 89 82 74 69 65 62 57 53 53 53 49 43 37 31 21 15 12 6 3 6 11 12 11 7 3 1 355 350 348 346 343 341 340 339 333 321 307 301 295 289 283 275 270 268 263 258 252 250 254 257 259 261 259 257 254 245 235 230 228 227 225 221 222 226 230 234 233 228 231 232 229 229
184 201 196 164 289 242 190 176 162 186 192 174 172 167 157 165 155 147 148 133 128 129 113 105 98 89 82 74 69 66 63 59 55 55 52 47 39 32 26 21 17 13 9 10 10 12 20 27 26 19 11 5 359 350 342 339 338 336 335 330 318 305 301 299 290 283 275 270 269 268 266 261 252 250 258 262 261 258 253 250 247 237 229 226 225 224 224 225 229 233 237 237 236 236 233 231 231
221 204 183 177 204 204 202 200 185 193 194 167 177 178 174 182 161 152 157 144 139 138 121 109 98 89 84 78 71 66 62 56 51 48 45 42 38 30 27 23 19 17 15 15 12 14 31 43 42 36 29 22 18 12 1 351 341 332 326 322 315 305 298 294 291 290 285 278 275 275 273 270 263 255 258 263 261 259 255 250 246 237 229 226 225 225 226 226 230 233 236 238 237 236 234 234 233
232 213 186 195 217 196 195 203 197 202 197 170 177 186 187 173 151 162 165 151 147 141 122 110 99 91 87 81 75 67 60 54 49 46 44 43 39 33 30 25 21 19 16 14 11 14 33 48 48 42 36 29 23 21 21 17 1 340 327 321 315 304 294 289 288 291 292 290 286 283 277 273 271 266 263 263 258 255 254 253 249 240 232 228 225 225 224 224 226 230 234 237 236 234 235 235 232
201 209 192 193 205 194 189 195 217 222 205 179 179 188 173 116 126 166 160 146 145 137 121 113 102 94 88 82 79 71 63 57 51 50 47 43 40 36 31 26 21 18 14 13 10 10 19 32 39 38 35 29 23 22 23 21 15 1 343 332 323 313 303 293 287 286 285 286 286 287 283 277 272 269 267 263 257 254 252 252 251 245 236 230 226 223 221 221 223 227 230 234 234 233 233 233 233
191 199 199 194 194 189 183 184 201 228 217 190 188 185 144 77 48 128 130 124 128 127 119 111 102 97 91 83 80 75 67 60 55 53 49 44 40 36 30 26 23 19 16 14 13 12 11 15 22 24 23 20 17 17 14 10 14 13 2 349 336 324 314 304 296 289 281 275 275 277 279 279 275 270 267 264 261 258 256 252 248 244 236 230 227 222 220 220 222 225 229 231 234 234 232 233 234